Location: San Antonio
(29.4240°N, 98.4930°W)
Time: 06:11:19
(UTC-05:00)

Tiros 1 - All Passes

Search period start: 19 July 2024 00:00
Search period end: 29 July 2024 00:00
Orbit: 624 x 656 km, 48.4° (Epoch: 19 July)

Date Brightness Start Highest point End Pass type
(mag) Time Alt. Az. Time Alt. Az. Time Alt. Az.
19 Jul - 13:11:23 10° SSW 13:15:43 37° SE 13:20:02 10° ENE daylight
19 Jul - 14:53:33 10° W 14:57:45 32° NW 15:01:56 10° NNE daylight
19 Jul - 20:05:43 10° NNW 20:08:43 17° NNE 20:11:44 10° ENE daylight
19 Jul - 21:46:39 10° NW 21:51:15 88° NE 21:55:49 10° SE visible
19 Jul - 23:31:53 10° WSW 23:32:44 10° SW 23:33:36 10° SW visible
20 Jul - 11:56:18 10° SSE 11:57:52 12° SE 11:59:27 10° ESE daylight
20 Jul - 13:34:41 10° SW 13:39:25 86° NW 13:44:07 10° NE daylight
20 Jul - 15:18:52 10° WNW 15:21:58 17° NNW 15:25:02 10° NNE daylight
20 Jul - 20:28:48 10° NNW 20:32:56 32° NE 20:37:02 10° E daylight
20 Jul - 22:10:46 10° WNW 22:14:56 35° SW 22:19:05 10° SSE visible
21 Jul - 12:17:14 10° SSW 12:21:22 31° SE 12:25:30 10° ENE daylight
21 Jul - 13:58:57 10° WSW 14:03:19 37° NW 14:07:40 10° NNE daylight
21 Jul - 15:45:43 10° NNW 15:46:25 10° NNW 15:47:08 10° N daylight
21 Jul - 19:11:32 10° NNW 19:14:14 15° NNE 19:16:56 10° ENE daylight
21 Jul - 20:52:16 10° NW 20:56:53 74° NE 21:01:26 10° SE visible
21 Jul - 22:36:18 10° W 22:38:26 13° SW 22:40:35 10° SSW visible
22 Jul - 12:40:17 10° SW 12:45:01 80° SE 12:49:43 10° NE daylight
22 Jul - 14:24:05 10° WNW 14:27:27 19° NNW 14:30:50 10° NNE daylight
22 Jul - 19:34:31 10° NNW 19:38:29 28° NNE 19:42:25 10° E daylight
22 Jul - 21:16:15 10° WNW 21:20:35 42° SW 21:24:54 10° SSE visible
23 Jul - 11:23:07 10° S 11:27:00 25° SE 11:30:53 10° ENE daylight
23 Jul - 13:04:22 10° WSW 13:08:52 43° NW 13:13:21 10° NE daylight
23 Jul - 14:50:19 10° NW 14:51:51 11° NNW 14:53:23 10° N daylight
23 Jul - 18:17:20 10° N 18:19:43 14° NNE 18:22:03 10° NE daylight
23 Jul - 19:57:54 10° NW 20:02:28 61° NE 20:06:59 10° ESE daylight
23 Jul - 21:41:16 10° W 21:44:07 16° SW 21:46:56 10° SSW visible
24 Jul - 11:45:54 10° SW 11:50:36 66° SE 11:55:18 10° NE daylight
24 Jul - 13:29:18 10° W 13:32:57 22° NNW 13:36:35 10° NNE daylight
24 Jul - 18:40:13 10° NNW 18:44:00 24° NNE 18:47:45 10° E daylight
24 Jul - 20:21:45 10° WNW 20:26:13 52° SW 20:30:39 10° SSE daylight
25 Jul - 10:29:04 10° S 10:32:38 21° SE 10:36:11 10° E daylight
25 Jul - 12:09:47 10° WSW 12:14:24 51° NW 12:19:00 10° NE daylight
25 Jul - 13:55:13 10° NW 13:57:17 13° NNW 13:59:21 10° N daylight
25 Jul - 17:23:11 10° N 17:25:09 12° NNE 17:27:06 10° NE daylight
25 Jul - 19:03:31 10° NW 19:08:02 51° NE 19:12:29 10° ESE daylight
25 Jul - 20:46:25 10° W 20:49:46 20° SW 20:53:03 10° S daylight
26 Jul - 10:51:34 10° SSW 10:56:11 54° SE 11:00:48 10° ENE daylight
26 Jul - 12:34:32 10° W 12:38:26 25° NNW 12:42:18 10° NNE daylight
26 Jul - 17:45:54 10° NNW 17:49:29 21° NNE 17:53:02 10° E daylight
26 Jul - 19:27:14 10° NW 19:31:48 64° SW 19:36:20 10° SE daylight
27 Jul - 09:35:07 10° S 09:38:15 17° SE 09:41:22 10° E daylight
27 Jul - 11:15:14 10° WSW 11:19:56 61° NW 11:24:37 10° NE daylight
27 Jul - 13:00:13 10° NW 13:02:42 14° NNW 13:05:12 10° N daylight
27 Jul - 16:29:05 10° N 16:30:34 11° NNE 16:32:03 10° NE daylight
27 Jul - 18:09:08 10° NW 18:13:34 43° NE 18:17:56 10° ESE daylight
27 Jul - 19:51:41 10° WNW 19:55:22 24° SW 19:59:03 10° S daylight
28 Jul - 09:57:14 10° SSW 10:01:45 45° SE 10:06:16 10° ENE daylight
28 Jul - 11:39:48 10° W 11:43:54 28° NNW 11:47:58 10° NNE daylight
28 Jul - 16:51:36 10° NNW 16:54:56 19° NNE 16:58:15 10° ENE daylight
28 Jul - 18:32:45 10° NW 18:37:22 78° SW 18:41:57 10° SE daylight
